QPF
0.00 0.00 0.00 0.00 0.00 0.00 0.00 0.00 0.00 0.00 0.00 0.00 0.02 0.06 0.03 0.01 0.00 0.00 0.00 0.00 0.00 0.00 0.00 0.00 0.00 0.00 0.00 0.00 0.00 0.00 0.00 0.00 0.00 0.00 0.00 0.00 0.00 0.00 0.00 0.00 0.00 0.00 0.00
0.00 0.00 0.00 0.00 0.00 0.00 0.00 0.00 0.00 0.00 0.00 0.00 0.00 0.01 0.02 0.01 0.00 0.00 0.00 0.00 0.00 0.00 0.00 0.00 0.00 0.00 0.00 0.00 0.00 0.00 0.00 0.00 0.00 0.00 0.00 0.00 0.00 0.00 0.00 0.00 0.00 0.00 0.00
0.00 0.00 0.00 0.00 0.00 0.00 0.00 0.00 0.00 0.00 0.00 0.00 0.00 0.00 0.03 0.05 0.02 0.00 0.00 0.00 0.00 0.00 0.00 0.00 0.00 0.00 0.00 0.00 0.00 0.00 0.00 0.00 0.00 0.00 0.00 0.00 0.00 0.00 0.00 0.00 0.00 0.00 0.00
0.00 0.00 0.00 0.00 0.00 0.00 0.00 0.00 0.00 0.00 0.00 0.00 0.00 0.00 0.00 0.02 0.01 0.00 0.00 0.00 0.00 0.00 0.00 0.00 0.00 0.00 0.00 0.00 0.00 0.00 0.00 0.00 0.00 0.00 0.00 0.00 0.00 0.00 0.00 0.00 0.00 0.00 0.00
0.00 0.00 0.00 0.00 0.00 0.00 0.00 0.00 0.00 0.00 0.01 0.01 0.00 0.00 0.00 0.00 0.01 0.00 0.00 0.00 0.00 0.00 0.00 0.00 0.00 0.00 0.00 0.00 0.00 0.00 0.00 0.00 0.00 0.00 0.00 0.00 0.00 0.00 0.00 0.00 0.00 0.00 0.00
0.00 0.00 0.00 0.00 0.00 0.00 0.00 0.00 0.00 0.00 0.04 0.09 0.06 0.01 0.00 0.01 0.01 0.01 0.00 0.00 0.00 0.00 0.00 0.00 0.00 0.00 0.00 0.00 0.00 0.00 0.00 0.00 0.00 0.00 0.00 0.00 0.00 0.00 0.00 0.00 0.00 0.00 0.00
0.00 0.00 0.00 0.00 0.00 0.00 0.01 0.01 0.02 0.02 0.03 0.09 0.13 0.14 0.09 0.05 0.02 0.01 0.01 0.00 0.00 0.00 0.00 0.00 0.00 0.00 0.00 0.00 0.00 0.00 0.00 0.00 0.00 0.00 0.00 0.00 0.00 0.00 0.00 0.00 0.00 0.00 0.00
0.00 0.00 0.00 0.00 0.00 0.00 0.02 0.01 0.06 0.03 0.04 0.08 0.09 0.25 0.33 0.24 0.12 0.06 0.02 0.00 0.00 0.00 0.00 0.00 0.00 0.00 0.00 0.00 0.00 0.00 0.00 0.00 0.00 0.00 0.00 0.00 0.00 0.00 0.00 0.00 0.00 0.00 0.00
0.00 0.00 0.00 0.00 0.00 0.00 0.01 0.02 0.02 0.07 0.09 0.25 0.17 0.30 0.38 0.38 0.28 0.20 0.07 0.00 0.00 0.00 0.00 0.00 0.00 0.00 0.00 0.00 0.00 0.00 0.00 0.00 0.00 0.00 0.00 0.00 0.00 0.00 0.00 0.00 0.00 0.00 0.00
0.00 0.00 0.00 0.00 0.00 0.00 0.01 0.01 0.03 0.03 0.14 0.22 0.30 0.36 0.44 0.38 0.36 0.22 0.14 0.00 0.00 0.00 0.00 0.00 0.00 0.00 0.00 0.00 0.00 0.00 0.00 0.00 0.00 0.00 0.00 0.00 0.00 0.00 0.00 0.00 0.00 0.00 0.00
0.00 0.00 0.00 0.00 0.00 0.00 0.01 0.01 0.01 0.02 0.03 0.10 0.17 0.28 0.45 0.43 0.47 0.47 0.24 0.08 0.04 0.02 0.01 0.00 0.00 0.00 0.00 0.00 0.00 0.00 0.00 0.00 0.00 0.00 0.00 0.00 0.00 0.00 0.00 0.00 0.00 0.00 0.00
0.00 0.00 0.00 0.00 0.00 0.00 0.00 0.00 0.01 0.00 0.01 0.01 0.06 0.09 0.13 0.28 0.36 0.38 0.36 0.26 0.27 0.20 0.17 0.19 0.10 0.05 0.02 0.00 0.00 0.00 0.00 0.00 0.00 0.00 0.00 0.00 0.00 0.00 0.00 0.00 0.00 0.00 0.00
0.00 0.00 0.00 0.00 0.00 0.00 0.00 0.00 0.00 0.00 0.01 0.02 0.04 0.06 0.05 0.07 0.14 0.20 0.26 0.25 0.22 0.23 0.22 0.22 0.24 0.23 0.17 0.11 0.05 0.02 0.00 0.00 0.00 0.00 0.00 0.00 0.00 0.00 0.00 0.00 0.00 0.01 0.00
0.00 0.00 0.00 0.00 0.00 0.00 0.00 0.00 0.00 0.00 0.01 0.02 0.02 0.02 0.03 0.06 0.07 0.08 0.10 0.12 0.12 0.17 0.22 0.15 0.13 0.13 0.13 0.17 0.17 0.13 0.10 0.08 0.06 0.05 0.04 0.02 0.02 0.02 0.02 0.02 0.02 0.01 0.00
0.00 0.00 0.00 0.00 0.00 0.00 0.00 0.00 0.00 0.00 0.00 0.01 0.02 0.02 0.01 0.02 0.03 0.04 0.05 0.06 0.05 0.03 0.05 0.07 0.07 0.05 0.04 0.02 0.02 0.02 0.06 0.09 0.14 0.16 0.15 0.11 0.11 0.10 0.08 0.05 0.01 0.00 0.00
0.00 0.00 0.00 0.00 0.00 0.00 0.00 0.00 0.00 0.00 0.00 0.00 0.00 0.00 0.00 0.00 0.00 0.00 0.00 0.01 0.02 0.02 0.01 0.01 0.01 0.01 0.01 0.02 0.02 0.01 0.01 0.01 0.02 0.02 0.05 0.09 0.11 0.07 0.04 0.01 0.00 0.00 0.00
0.00 0.00 0.00 0.00 0.00 0.00 0.00 0.00 0.00 0.00 0.00 0.00 0.00 0.00 0.00 0.00 0.00 0.00 0.00 0.00 0.00 0.00 0.00 0.00 0.00 0.00 0.00 0.00 0.00 0.00 0.00 0.01 0.01 0.02 0.01 0.02 0.02 0.03 0.01 0.01 0.00 0.00 0.00
0.04 0.02 0.00 0.00 0.00 0.00 0.00 0.00 0.00 0.00 0.00 0.00 0.00 0.00 0.00 0.00 0.00 0.00 0.00 0.00 0.00 0.00 0.00 0.00 0.00 0.00 0.00 0.01 0.00 0.00 0.00 0.00 0.00 0.00 0.00 0.01 0.02 0.02 0.01 0.01 0.00 0.00 0.00
0.05 0.07 0.07 0.04 0.01 0.00 0.00 0.00 0.00 0.00 0.00 0.00 0.00 0.00 0.00 0.00 0.00 0.00 0.00 0.00 0.00 0.00 0.00 0.00 0.00 0.00 0.00 0.00 0.01 0.01 0.00 0.00 0.00 0.00 0.01 0.03 0.02 0.04 0.03 0.01 0.01 0.00 0.00
0.05 0.05 0.06 0.10 0.08 0.05 0.02 0.01 0.00 0.00 0.00 0.00 0.00 0.00 0.00 0.00 0.00 0.00 0.00 0.00 0.00 0.00 0.00 0.00 0.00 0.01 0.00 0.01 0.01 0.01 0.00 0.00 0.00 0.00 0.00 0.03 0.04 0.09 0.05 0.02 0.02 0.00 0.00
0.02 0.03 0.05 0.07 0.13 0.13 0.06 0.03 0.01 0.01 0.00 0.00 0.00 0.00 0.00 0.00 0.00 0.00 0.00 0.00 0.00 0.00 0.00 0.00 0.00 0.00 0.01 0.01 0.01 0.01 0.00 0.00 0.00 0.00 0.01 0.02 0.04 0.03 0.04 0.02 0.01 0.01 0.01
0.00 0.00 0.01 0.03 0.03 0.03 0.01 0.01 0.00 0.00 0.00 0.00 0.00 0.00 0.00 0.00 0.00 0.00 0.00 0.00 0.00 0.00 0.01 0.00 0.00 0.00 0.00 0.01 0.01 0.01 0.01 0.02 0.00 0.01 0.01 0.04 0.08 0.02 0.02 0.01 0.02 0.03 0.01
0.00 0.00 0.00 0.00 0.00 0.00 0.00 0.00 0.00 0.00 0.00 0.00 0.00 0.00 0.00 0.00 0.00 0.00 0.00 0.00 0.00 0.00 0.00 0.00 0.00 0.01 0.00 0.00 0.01 0.01 0.01 0.02 0.01 0.01 0.04 0.09 0.09 0.05 0.03 0.04 0.04 0.01 0.00
0.00 0.00 0.00 0.00 0.00 0.00 0.00 0.00 0.00 0.00 0.00 0.00 0.00 0.00 0.00 0.00 0.00 0.00 0.00 0.00 0.00 0.00 0.00 0.00 0.00 0.00 0.00 0.00 0.00 0.00 0.00 0.01 0.01 0.02 0.06 0.07 0.06 0.06 0.05 0.05 0.02 0.00 0.00
0.00 0.00 0.00 0.00 0.00 0.00 0.00 0.00 0.00 0.00 0.00 0.00 0.00 0.00 0.00 0.00 0.00 0.00 0.00 0.00 0.00 0.00 0.00 0.00 0.00 0.00 0.00 0.01 0.03 0.01 0.00 0.01 0.03 0.06 0.05 0.07 0.05 0.05 0.05 0.03 0.00 0.00 0.00
0.00 0.00 0.00 0.00 0.00 0.00 0.00 0.00 0.00 0.00 0.00 0.00 0.00 0.00 0.00 0.00 0.00 0.00 0.00 0.00 0.00 0.00 0.00 0.00 0.00 0.00 0.00 0.01 0.01 0.02 0.02 0.03 0.06 0.08 0.07 0.03 0.02 0.04 0.04 0.03 0.02 0.01 0.00
MSLP
1002.89 1003.36 1003.92 1004.71 1006.12 1007.11 1007.79 1008.40 1009.21 1010.24 1011.18 1011.85 1012.82 1013.30 1013.64 1014.08 1013.80 1014.41 1014.92 1015.45 1015.76 1016.45 1016.78 1018.30 1018.56 1018.78 1019.29 1019.82 1020.60 1021.29 1021.92 1022.64 1022.98 1023.64 1024.37 1025.08 1025.06 1025.23 1025.19 1025.49 1025.78 1025.86 1025.88
1002.42 1002.63 1003.22 1004.05 1004.89 1006.20 1006.98 1007.78 1008.38 1009.10 1010.03 1010.67 1011.49 1012.49 1013.08 1013.57 1013.69 1014.18 1014.88 1015.42 1015.83 1016.30 1016.63 1017.17 1018.26 1018.49 1018.98 1019.42 1020.19 1021.07 1021.66 1022.56 1023.07 1023.27 1023.86 1024.82 1025.41 1025.49 1025.51 1025.36 1025.65 1026.02 1026.02
1002.69 1002.86 1003.24 1003.74 1004.10 1005.25 1006.26 1006.94 1007.69 1008.38 1009.23 1010.24 1010.86 1011.76 1012.47 1013.37 1013.40 1014.24 1014.64 1015.04 1015.57 1016.30 1016.43 1016.55 1017.63 1018.18 1018.67 1019.22 1019.87 1020.72 1021.30 1021.82 1022.77 1022.80 1022.85 1023.85 1023.93 1025.07 1025.78 1025.72 1025.77 1025.96 1026.10
1003.31 1003.36 1003.36 1003.39 1003.82 1004.67 1005.75 1006.58 1007.22 1007.83 1008.55 1009.54 1010.30 1010.86 1011.42 1012.15 1012.92 1013.78 1014.22 1014.64 1015.05 1015.98 1016.48 1016.55 1017.27 1017.92 1018.33 1019.03 1019.69 1020.39 1021.05 1021.47 1022.09 1022.47 1022.74 1023.11 1022.93 1024.01 1025.25 1025.70 1025.87 1025.97 1026.10
1004.26 1003.77 1003.63 1003.73 1003.63 1004.53 1005.38 1006.17 1006.93 1007.50 1008.34 1008.89 1009.49 1010.35 1010.80 1011.46 1012.12 1013.50 1013.81 1014.37 1014.89 1015.59 1016.29 1016.54 1016.89 1017.69 1018.13 1018.85 1019.49 1020.09 1020.65 1021.25 1021.67 1022.08 1022.72 1022.87 1023.04 1023.11 1023.75 1024.83 1025.59 1026.02 1026.19
1005.21 1004.75 1004.59 1004.47 1004.15 1004.66 1005.59 1006.46 1007.06 1007.56 1008.06 1008.47 1008.98 1009.46 1010.16 1010.82 1011.53 1012.67 1013.25 1013.88 1014.28 1015.00 1015.83 1016.26 1016.71 1017.29 1017.80 1018.46 1019.05 1019.67 1020.25 1020.54 1021.19 1021.52 1022.09 1022.35 1022.55 1022.78 1023.05 1023.71 1024.96 1025.61 1026.10
1006.73 1006.23 1005.99 1006.00 1005.93 1005.87 1006.70 1007.27 1007.72 1008.13 1008.24 1008.21 1008.17 1008.64 1009.33 1010.17 1011.09 1011.69 1012.54 1013.18 1013.79 1014.42 1015.03 1015.76 1016.28 1016.80 1017.34 1017.88 1018.40 1019.14 1019.68 1020.09 1020.51 1020.93 1021.45 1021.87 1022.10 1022.28 1022.76 1023.17 1024.36 1025.08 1026.00
1008.67 1008.57 1008.66 1008.75 1008.49 1007.99 1008.00 1007.68 1007.95 1008.19 1008.37 1008.54 1008.74 1009.02 1009.63 1009.78 1010.78 1011.55 1011.83 1012.20 1012.81 1013.46 1014.33 1015.08 1015.62 1016.17 1016.80 1017.45 1017.98 1018.66 1019.16 1019.68 1020.11 1020.60 1021.00 1021.52 1021.86 1022.18 1022.55 1023.02 1023.92 1024.82 1025.85
1010.56 1010.23 1010.18 1010.06 1009.81 1009.62 1009.40 1008.93 1008.18 1008.42 1008.77 1009.03 1009.34 1009.71 1010.00 1010.24 1011.32 1012.01 1011.78 1012.05 1012.33 1013.03 1013.90 1014.69 1015.26 1015.84 1016.38 1017.07 1017.72 1018.31 1018.83 1019.33 1019.83 1020.36 1020.72 1020.99 1021.48 1021.95 1022.28 1022.59 1023.00 1023.57 1024.56
1012.11 1011.60 1011.38 1011.19 1010.96 1010.88 1010.55 1010.07 1009.48 1008.97 1008.83 1009.04 1009.41 1009.72 1009.91 1010.52 1011.28 1012.02 1011.58 1012.60 1012.17 1012.79 1013.51 1014.18 1014.88 1015.46 1016.04 1016.63 1017.30 1017.99 1018.56 1018.97 1019.39 1019.94 1020.41 1020.74 1021.19 1021.61 1022.11 1022.30 1022.64 1022.87 1023.29
1013.47 1013.10 1012.75 1012.45 1012.19 1011.86 1011.47 1011.15 1010.50 1010.04 1009.70 1009.51 1009.09 1009.77 1010.50 1010.68 1010.84 1011.50 1012.40 1012.75 1012.50 1013.10 1013.58 1014.08 1014.60 1015.11 1015.66 1016.21 1016.92 1017.56 1018.15 1018.48 1018.92 1019.43 1019.89 1020.26 1020.75 1021.22 1021.70 1022.28 1022.58 1022.70 1023.07
1014.84 1014.53 1014.13 1013.71 1013.39 1013.05 1012.60 1012.05 1011.49 1011.14 1010.62 1010.15 1009.61 1009.64 1010.40 1010.54 1011.11 1011.29 1011.61 1012.17 1012.82 1013.41 1014.01 1014.35 1014.62 1015.17 1015.52 1016.06 1016.39 1017.08 1017.59 1017.95 1018.37 1018.95 1019.56 1019.93 1020.36 1020.81 1021.37 1021.84 1022.38 1022.69 1023.26
1016.36 1016.02 1015.68 1015.27 1015.13 1014.71 1014.28 1013.59 1012.58 1012.05 1011.35 1010.49 1009.77 1009.77 1010.14 1010.50 1010.66 1010.83 1011.86 1012.27 1012.60 1013.14 1013.65 1014.40 1014.58 1015.28 1015.81 1016.36 1016.58 1017.00 1017.31 1017.78 1018.21 1018.46 1019.06 1019.47 1020.07 1020.52 1021.30 1021.90 1022.44 1022.88 1023.42
1018.11 1017.74 1017.20 1016.87 1016.67 1016.35 1015.92 1015.12 1014.15 1013.06 1012.16 1011.44 1010.88 1010.63 1010.52 1010.37 1010.43 1010.99 1011.54 1011.81 1012.13 1012.69 1013.54 1013.62 1014.22 1014.99 1015.58 1016.23 1016.24 1016.77 1017.08 1017.45 1018.14 1018.65 1018.82 1019.42 1019.96 1020.72 1021.27 1022.04 1022.43 1022.90 1023.58
1019.52 1019.39 1018.96 1018.47 1017.96 1017.54 1016.96 1016.14 1015.30 1014.39 1013.15 1012.61 1012.08 1011.81 1011.53 1011.19 1011.12 1011.24 1011.54 1011.92 1012.37 1012.95 1013.15 1013.70 1013.98 1014.64 1015.12 1015.89 1016.46 1016.76 1017.02 1017.34 1017.98 1018.64 1018.83 1019.22 1019.88 1020.49 1020.92 1021.61 1022.11 1022.65 1023.45
1021.27 1020.85 1020.46 1020.06 1019.42 1018.84 1018.27 1017.45 1016.41 1015.28 1014.11 1013.66 1013.22 1012.74 1012.40 1012.18 1012.06 1011.98 1012.00 1012.08 1012.68 1012.89 1013.15 1013.63 1014.06 1014.61 1014.90 1015.33 1015.75 1016.44 1016.88 1017.06 1017.50 1018.16 1018.71 1019.15 1019.47 1020.18 1020.68 1021.11 1021.73 1022.17 1022.79
1022.82 1022.30 1021.73 1021.23 1020.75 1020.10 1019.39 1018.49 1017.51 1016.39 1015.40 1014.83 1014.41 1014.21 1013.91 1013.50 1013.29 1012.79 1012.66 1012.55 1012.80 1012.92 1013.21 1013.58 1014.07 1014.58 1015.16 1015.42 1015.82 1016.34 1016.73 1016.74 1017.20 1017.56 1018.13 1018.90 1019.43 1020.09 1020.83 1021.44 1022.00 1022.32 1022.47
1023.90 1023.50 1022.90 1022.27 1021.57 1021.01 1020.33 1019.45 1018.46 1017.75 1017.23 1016.72 1015.75 1015.11 1014.74 1014.44 1014.17 1013.85 1013.59 1013.64 1013.50 1013.39 1013.48 1013.75 1014.16 1014.68 1015.06 1015.32 1015.56 1016.08 1016.45 1016.68 1016.87 1017.16 1017.66 1018.50 1019.50 1019.91 1020.66 1021.86 1022.33 1022.65 1022.99
1024.98 1024.42 1023.90 1023.15 1022.42 1021.75 1021.14 1020.39 1019.62 1019.06 1018.72 1018.28 1017.49 1016.71 1016.18 1015.62 1015.06 1014.58 1014.29 1014.07 1014.02 1013.86 1013.95 1014.26 1014.22 1014.61 1014.78 1015.01 1015.21 1015.97 1016.28 1016.71 1016.69 1017.47 1017.67 1018.66 1019.23 1019.82 1020.83 1021.65 1022.33 1023.24 1023.62
1025.58 1024.91 1024.42 1023.68 1022.96 1022.29 1021.66 1021.02 1020.48 1019.92 1019.68 1019.31 1018.70 1017.85 1017.20 1016.77 1016.41 1016.19 1015.86 1015.51 1015.05 1014.75 1014.52 1014.48 1014.74 1014.76 1014.87 1014.76 1015.01 1015.74 1016.17 1016.82 1017.11 1017.76 1018.54 1018.78 1019.19 1019.85 1020.45 1021.28 1022.14 1023.21 1023.76
1025.88 1025.49 1024.82 1024.07 1023.44 1022.76 1022.04 1021.49 1020.94 1020.75 1020.25 1019.71 1019.22 1018.53 1017.92 1017.54 1017.21 1016.89 1016.57 1016.24 1015.74 1015.26 1014.91 1014.75 1014.58 1014.60 1014.75 1014.79 1015.10 1015.44 1015.98 1016.67 1017.38 1017.76 1018.51 1018.83 1019.29 1019.72 1020.46 1021.14 1022.09 1022.51 1023.66
1026.08 1025.83 1025.00 1024.05 1023.49 1023.06 1022.32 1022.06 1021.23 1021.21 1020.50 1020.03 1019.20 1018.53 1018.03 1017.85 1017.57 1017.43 1016.98 1016.76 1016.32 1015.89 1015.53 1015.26 1015.01 1014.74 1014.61 1014.71 1014.90 1015.25 1015.82 1016.63 1017.34 1018.00 1018.31 1018.70 1019.28 1019.88 1020.63 1021.38 1021.99 1022.75 1023.94
1026.62 1026.29 1025.58 1024.54 1023.95 1023.37 1022.78 1022.13 1021.83 1021.86 1020.78 1020.42 1019.22 1018.59 1018.47 1018.13 1017.94 1017.34 1017.16 1016.90 1016.63 1016.22 1016.03 1015.98 1015.84 1015.65 1015.48 1015.26 1015.15 1015.55 1016.19 1016.74 1017.23 1017.68 1018.19 1018.78 1019.45 1020.20 1020.92 1021.29 1021.98 1023.00 1024.07
1027.16 1026.88 1026.00 1025.24 1024.33 1023.73 1023.26 1023.04 1022.67 1022.12 1021.40 1021.03 1019.80 1019.13 1018.62 1018.15 1017.82 1017.54 1017.56 1017.43 1016.96 1016.53 1016.30 1016.17 1016.08 1015.93 1015.77 1015.60 1015.45 1015.86 1016.44 1017.03 1017.54 1017.93 1018.46 1018.90 1019.81 1020.58 1020.87 1021.66 1022.57 1023.42 1024.06
1028.23 1027.77 1026.67 1025.80 1025.18 1024.62 1024.06 1023.68 1023.11 1022.59 1022.52 1021.10 1020.40 1019.76 1018.88 1018.37 1018.17 1018.14 1017.86 1017.66 1017.28 1016.93 1016.63 1016.47 1016.29 1016.14 1015.99 1015.84 1015.75 1015.92 1016.38 1016.98 1017.56 1018.13 1018.61 1019.35 1020.26 1020.80 1021.41 1022.21 1022.97 1023.58 1024.36
1029.14 1028.18 1027.50 1026.80 1026.05 1025.36 1024.70 1024.07 1023.65 1023.41 1022.56 1021.69 1020.67 1020.04 1019.31 1018.90 1018.92 1018.45 1017.75 1017.30 1017.12 1016.80 1016.72 1016.52 1016.49 1016.28 1016.14 1016.03 1015.94 1016.20 1016.61 1017.14 1017.59 1018.25 1018.87 1019.58 1020.23 1020.85 1021.37 1022.21 1023.05 1023.85 1024.53
Thickness
5687 5689 5687 5686 5676 5671 5669 5666 5661 5654 5648 5643 5635 5631 5629 5628 5635 5641 5647 5651 5654 5652 5656 5642 5647 5652 5653 5653 5649 5647 5646 5642 5644 5640 5636 5631 5633 5633 5633 5632 5630 5630 5629
5679 5684 5683 5680 5677 5668 5665 5662 5659 5654 5649 5645 5638 5628 5623 5621 5627 5632 5633 5638 5645 5647 5649 5649 5643 5647 5648 5651 5649 5644 5643 5638 5637 5637 5634 5626 5624 5624 5624 5625 5624 5622 5622
5665 5669 5671 5672 5674 5667 5662 5659 5655 5651 5647 5639 5634 5626 5621 5613 5614 5617 5625 5634 5639 5639 5644 5651 5644 5643 5645 5645 5645 5641 5638 5636 5632 5634 5637 5627 5629 5620 5615 5617 5617 5615 5613
5652 5656 5659 5664 5666 5663 5659 5655 5652 5648 5643 5636 5631 5625 5622 5619 5620 5620 5625 5631 5635 5635 5636 5643 5641 5640 5641 5640 5639 5636 5634 5633 5629 5630 5630 5628 5631 5621 5609 5609 5609 5608 5606
5634 5642 5649 5652 5659 5656 5654 5651 5646 5643 5637 5635 5628 5622 5619 5618 5618 5614 5617 5618 5626 5629 5630 5635 5637 5635 5636 5635 5633 5631 5630 5627 5625 5625 5620 5621 5621 5623 5617 5607 5603 5600 5598
5618 5627 5633 5638 5646 5647 5644 5638 5636 5634 5630 5628 5626 5620 5616 5614 5614 5607 5610 5616 5623 5625 5625 5627 5630 5629 5630 5629 5628 5625 5623 5625 5621 5621 5618 5618 5616 5615 5616 5611 5600 5596 5592
5596 5607 5613 5615 5622 5629 5623 5622 5621 5618 5620 5622 5624 5620 5612 5608 5607 5609 5610 5613 5616 5619 5623 5623 5625 5626 5625 5623 5622 5620 5619 5619 5619 5617 5615 5613 5613 5614 5611 5609 5598 5593 5584
5572 5578 5580 5580 5586 5597 5603 5612 5612 5612 5611 5611 5611 5608 5601 5602 5601 5605 5610 5612 5613 5617 5617 5616 5617 5618 5617 5615 5615 5613 5614 5614 5614 5612 5610 5607 5606 5605 5603 5600 5592 5584 5574
5545 5555 5558 5561 5568 5573 5580 5588 5603 5604 5600 5597 5596 5593 5590 5592 5589 5593 5597 5603 5606 5607 5608 5608 5610 5610 5611 5609 5608 5608 5609 5607 5606 5604 5603 5602 5599 5597 5596 5594 5590 5582 5575
5523 5533 5539 5545 5551 5556 5563 5570 5579 5588 5593 5591 5591 5588 5586 5585 5582 5582 5585 5586 5597 5600 5601 5603 5604 5605 5605 5604 5603 5601 5600 5600 5600 5597 5595 5593 5590 5589 5586 5585 5581 5579 5576
5503 5511 5519 5526 5533 5541 5548 5553 5561 5568 5572 5578 5584 5581 5575 5577 5581 5578 5576 5575 5584 5584 5588 5593 5596 5598 5598 5598 5596 5594 5591 5592 5592 5590 5587 5585 5582 5581 5577 5572 5569 5570 5567
5486 5493 5500 5508 5514 5521 5530 5538 5546 5551 5555 5561 5572 5574 5568 5571 5569 5572 5572 5570 5570 5568 5570 5573 5579 5582 5587 5586 5588 5585 5584 5585 5584 5581 5577 5575 5571 5569 5566 5565 5561 5560 5555
5464 5472 5480 5487 5491 5499 5506 5516 5530 5536 5543 5551 5562 5561 5560 5564 5564 5567 5560 5562 5564 5560 5561 5560 5565 5566 5568 5568 5571 5573 5574 5574 5571 5571 5566 5564 5561 5559 5556 5554 5549 5546 5542
5441 5448 5458 5466 5471 5478 5485 5495 5506 5520 5529 5535 5540 5547 5549 5554 5559 5556 5556 5559 5559 5558 5556 5561 5561 5559 5560 5560 5561 5562 5563 5562 5558 5556 5556 5553 5551 5548 5546 5542 5538 5535 5527
5420 5426 5434 5443 5452 5459 5469 5479 5488 5498 5514 5520 5524 5525 5531 5540 5543 5544 5545 5547 5548 5548 5550 5552 5554 5554 5554 5551 5550 5553 5553 5554 5548 5545 5546 5546 5543 5540 5537 5533 5529 5523 5516
5394 5404 5413 5421 5430 5439 5449 5460 5472 5484 5498 5504 5509 5514 5516 5521 5527 5530 5534 5536 5534 5537 5542 5541 5543 5542 5544 5541 5543 5541 5540 5543 5542 5538 5537 5536 5534 5529 5528 5523 5518 5513 5507
5369 5380 5391 5401 5410 5419 5430 5442 5455 5469 5480 5487 5492 5495 5498 5503 5507 5516 5521 5526 5528 5530 5530 5533 5531 5530 5528 5531 5531 5529 5529 5531 5530 5530 5527 5524 5522 5519 5513 5507 5500 5497 5496
5350 5360 5371 5382 5393 5403 5412 5424 5438 5447 5454 5462 5474 5481 5485 5488 5492 5497 5503 5507 5513 5518 5522 5524 5524 5522 5521 5523 5525 5523 5522 5524 5525 5526 5523 5517 5508 5507 5500 5489 5485 5482 5480
5328 5340 5352 5364 5375 5385 5395 5406 5417 5426 5431 5438 5449 5459 5466 5473 5479 5485 5490 5495 5498 5504 5508 5509 5514 5513 5515 5516 5519 5515 5516 5514 5518 5511 5513 5503 5499 5495 5485 5480 5474 5465 5464
5309 5323 5334 5348 5360 5370 5379 5389 5398 5407 5412 5419 5429 5441 5450 5456 5462 5465 5470 5475 5481 5486 5492 5497 5497 5500 5503 5508 5511 5507 5505 5501 5501 5497 5490 5490 5487 5481 5479 5472 5465 5454 5450
5294 5304 5317 5331 5343 5353 5362 5372 5382 5387 5396 5405 5413 5423 5432 5439 5445 5451 5457 5462 5469 5476 5482 5486 5490 5492 5493 5495 5496 5496 5493 5489 5484 5483 5478 5476 5474 5473 5468 5461 5453 5451 5443
5280 5288 5301 5316 5328 5335 5346 5353 5365 5371 5382 5390 5401 5410 5418 5424 5430 5435 5442 5448 5454 5461 5466 5473 5477 5482 5486 5487 5488 5486 5482 5477 5472 5468 5468 5467 5465 5460 5454 5448 5444 5440 5432
5259 5268 5281 5297 5309 5318 5327 5338 5346 5350 5365 5372 5387 5397 5403 5411 5415 5424 5429 5435 5441 5447 5453 5455 5459 5462 5466 5470 5473 5472 5468 5465 5462 5461 5459 5456 5453 5448 5442 5441 5436 5429 5420
5242 5249 5263 5275 5290 5300 5309 5316 5324 5333 5345 5352 5366 5377 5387 5396 5402 5410 5414 5418 5426 5433 5439 5443 5446 5451 5454 5458 5461 5459 5457 5454 5450 5449 5447 5446 5441 5434 5433 5428 5421 5414 5409
5220 5228 5243 5256 5267 5277 5287 5296 5306 5316 5320 5338 5350 5359 5371 5379 5385 5390 5397 5404 5411 5418 5424 5429 5433 5438 5441 5445 5449 5449 5447 5442 5440 5437 5436 5431 5424 5421 5417 5412 5406 5402 5395
5199 5211 5222 5231 5243 5255 5266 5278 5287 5292 5305 5318 5332 5342 5352 5360 5363 5371 5383 5393 5399 5406 5410 5416 5420 5424 5428 5432 5435 5435 5434 5431 5430 5426 5422 5418 5413 5409 5407 5401 5394 5388 5384